Enterprise, AL

4:24 PM CST on February 21, 2017 (GMT -0600)
Fort Rucker / Ozark

Weather History for KLOR - November, 2012

Change the Weather History Date:

Monday, November 19, 2012

  Actual Average (KOZR) Record (KOZR)
Temperature  
Mean Temperature 54 °F -  
Max Temperature 69 °F 65 °F 82 °F (1998)
Min Temperature 39 °F 44 °F 21 °F (2014)
Degree Days  
Heating Degree Days 11    
Growing Degree Days 4 (Base 50)    
Moisture  
Dew Point 46 °F    
Average Humidity 75    
Maximum Humidity 93    
Minimum Humidity 42    
Precipitation  
Precipitation 0.00 in - - ()
Sea Level Pressure  
Sea Level Pressure 30.21 in    
Wind  
Wind Speed 1 mph (South)    
Max Wind Speed 10 mph    
Max Gust Speed -    
Visibility 10 miles    
Events      
Averages and records for this station are not official NWS values.
T = Trace of Precipitation, MM = Missing Value Source: NWS Daily Summary

Daily Weather History Graph

Daily Weather History Graph

Search for Another Location

Airport or City:

Trip Planner

Search our weather history database for the weather conditions in past years. The results will help you decide how hot, cold, wet, or windy it might be!

Date:

Astronomy

Nov. 19, 2012 Rise Set
Actual Time 6:14 AM CST 4:42 PM CST
Civil Twilight 5:48 AM CST 5:08 PM CST
Nautical Twilight 5:18 AM CST 5:37 PM CST
Astronomical Twilight 4:49 AM CST 6:06 PM CST
Moon 11:25 AM CST (11/19) 10:58 PM CST (11/19)
Length of Visible Light 11h 19m
Length of Day
10h 27m
Waxing Crescent, 41% of the Moon is Illuminated
Nov 19
Waxing Crescent
Nov 20
First Quarter
Nov 28
Full
Dec 6
Last Quarter
Dec 13
New

Hourly Weather History & Observations

Time (CST) Temp. Dew Point Humidity Pressure Visibility Wind Dir Wind Speed Gust Speed Precip Events Conditions
12:53 AM 43.0 °F 41.0 °F 93% 30.26 in 9.0 mi Calm Calm - N/A   Clear
1:53 AM 42.1 °F 39.9 °F 92% 30.27 in 9.0 mi Calm Calm - N/A   Clear
2:53 AM 41.0 °F 39.0 °F 93% 30.26 in 9.0 mi Calm Calm - N/A   Clear
3:53 AM 41.0 °F 39.0 °F 93% 30.25 in 7.0 mi Calm Calm - N/A   Clear
4:53 AM 39.9 °F 37.9 °F 93% 30.26 in 7.0 mi Calm Calm - N/A   Clear
5:53 AM 39.0 °F 37.0 °F 93% 30.27 in 10.0 mi Calm Calm - N/A   Clear
6:53 AM 41.0 °F 39.0 °F 93% 30.27 in 10.0 mi Calm Calm - N/A   Clear
7:53 AM 52.0 °F 46.0 °F 80% 30.27 in 10.0 mi Calm Calm - N/A   Clear
8:53 AM 59.0 °F 46.9 °F 64% 30.27 in 10.0 mi Calm Calm - N/A   Clear
9:53 AM 62.1 °F 48.0 °F 60% 30.27 in 10.0 mi Calm Calm - N/A   Clear
10:53 AM 66.9 °F 48.0 °F 51% 30.24 in 10.0 mi Calm Calm - N/A   Clear
11:53 AM 68.0 °F 46.0 °F 45% 30.22 in 10.0 mi North 5.8 mph - N/A   Clear
12:53 PM 68.0 °F 44.1 °F 42% 30.19 in 10.0 mi North 10.4 mph - N/A   Clear
1:53 PM 69.1 °F 46.0 °F 44% 30.18 in 10.0 mi North 8.1 mph - N/A   Clear
2:53 PM 68.0 °F 48.0 °F 49% 30.17 in 10.0 mi North 4.6 mph - N/A   Clear
3:53 PM 68.0 °F 50.0 °F 52% 30.16 in 10.0 mi NNW 5.8 mph - N/A   Clear
4:53 PM 63.0 °F 51.1 °F 65% 30.17 in 10.0 mi NNE 4.6 mph - N/A   Clear
5:53 PM 59.0 °F 51.1 °F 75% 30.16 in 10.0 mi Calm Calm - N/A   Clear
6:53 PM 53.1 °F 48.9 °F 86% 30.17 in 10.0 mi Calm Calm - N/A   Clear
7:53 PM 52.0 °F 48.9 °F 89% 30.18 in 10.0 mi Calm Calm - N/A   Mostly Cloudy
8:53 PM 53.1 °F 50.0 °F 89% 30.18 in 10.0 mi Calm Calm - N/A   Overcast
9:53 PM 54.0 °F 50.0 °F 86% 30.17 in 10.0 mi Calm Calm - N/A   Overcast
10:53 PM 55.0 °F 50.0 °F 83% 30.17 in 10.0 mi Calm Calm - N/A   Overcast
11:53 PM 55.0 °F 51.1 °F 86% 30.15 in 10.0 mi Calm Calm - N/A   Overcast